Вернуться в каталог

SL-3 R/B

АктивенPO
NORAD 12904·ROCKET BODY·🇷🇺 Russia

Запущен Oct 13, 1981 с Plesetsk Cosmodrome

Loading…

Ближайшие Пролёты (ближайшие 24 часа)

TLE

СвежийSource: Space-Track

Эпоха: Sep 14, 2026, 21:21 UTC

1 12904U 81103B   26257.89006843  .00003800  00000-0  16069-3 0  9995
2 12904  81.1614 351.1895 0012735  12.6170 347.5378 15.22899890  2020

Отслеживайте SL-3 R/B в реальном времени с AllMySat

Download on the App Store